CSC8567 ZLYS-ZUUU

Flight info

Callsign CSC8567
Flight time 1h 13m
Altitude 32100
Route LUVAR L888 BIGOR W9 LADUP LADU2E
Aircraft A319/M-SDE3FGHIRWY/LB1

Departure

Time 2026-05-09 03:12
Airport Yushu Batang Airport (ZLYS)

Arrival

Time 2026-05-09 04:26
Airport Chengdu Shuangliu International Airport (ZUUU)
Time Latitude Longitude Altitude Speed Heading
2026-05-09 02:56 32.83906 97.03944 12739 ft 0 kts 13°
2026-05-09 03:03 32.83905 97.03944 12735 ft 2 kts 13°
2026-05-09 03:03 32.83880 97.03937 12736 ft 4 kts 11°
2026-05-09 03:03 32.83858 97.03931 12737 ft 4 kts 11°
2026-05-09 03:04 32.83834 97.03932 12735 ft 4 kts 320°
2026-05-09 03:04 32.83822 97.03958 12734 ft 4 kts 281°
2026-05-09 03:04 32.83820 97.03970 12735 ft 0 kts 283°
2026-05-09 03:06 32.83821 97.03969 12735 ft 1 kts 283°
2026-05-09 03:06 32.83830 97.03920 12736 ft 9 kts 283°
2026-05-09 03:06 32.83848 97.03827 12738 ft 13 kts 283°
2026-05-09 03:07 32.83846 97.03723 12736 ft 13 kts 218°
2026-05-09 03:07 32.83777 97.03702 12737 ft 3 kts 193°
2026-05-09 03:07 32.83776 97.03702 12737 ft 0 kts 193°
2026-05-09 03:08 32.83775 97.03702 12737 ft 0 kts 193°
2026-05-09 03:09 32.83766 97.03699 12738 ft 4 kts 193°
2026-05-09 03:09 32.83712 97.03684 12739 ft 11 kts 193°
2026-05-09 03:09 32.83646 97.03640 12740 ft 11 kts 255°
2026-05-09 03:09 32.83672 97.03503 12740 ft 24 kts 283°
2026-05-09 03:10 32.83722 97.03245 12743 ft 40 kts 283°
2026-05-09 03:10 32.83795 97.02869 12751 ft 51 kts 283°
2026-05-09 03:10 32.83880 97.02440 12758 ft 55 kts 283°
2026-05-09 03:10 32.83970 97.01984 12764 ft 58 kts 283°
2026-05-09 03:11 32.84066 97.01710 12769 ft 12 kts 274°
2026-05-09 03:11 32.84030 97.01700 12770 ft 6 kts 146°
2026-05-09 03:11 32.83993 97.01850 12766 ft 39 kts 103°
2026-05-09 03:11 32.83901 97.02340 12760 ft 84 kts 102°
2026-05-09 03:12 32.83738 97.03211 12744 ft 131 kts 103°
2026-05-09 03:12 32.83493 97.04434 12732 ft 173 kts 102°
2026-05-09 03:12 32.83243 97.05912 13023 ft 187 kts 101°
2026-05-09 03:12 32.82956 97.07430 13638 ft 189 kts 102°
2026-05-09 03:13 32.82339 97.10792 14213 ft 230 kts 95°
2026-05-09 03:13 32.82288 97.12776 14423 ft 252 kts 89°
2026-05-09 03:13 32.82201 97.14913 14679 ft 274 kts 98°
2026-05-09 03:14 32.81657 97.17195 14958 ft 298 kts 107°
2026-05-09 03:14 32.80971 97.19627 15543 ft 311 kts 107°
2026-05-09 03:14 32.80285 97.22040 16315 ft 316 kts 107°
2026-05-09 03:14 32.79582 97.24521 17137 ft 319 kts 107°
2026-05-09 03:15 32.78855 97.27035 17968 ft 322 kts 109°
2026-05-09 03:15 32.77964 97.29481 18746 ft 326 kts 115°
2026-05-09 03:15 32.76874 97.31863 19400 ft 330 kts 120°
2026-05-09 03:15 32.75603 97.34146 20020 ft 334 kts 125°
2026-05-09 03:16 32.74205 97.36364 20619 ft 338 kts 126°
2026-05-09 03:16 32.72783 97.38607 21165 ft 342 kts 127°
2026-05-09 03:16 32.71336 97.40884 21691 ft 346 kts 127°
2026-05-09 03:16 32.69878 97.43167 22210 ft 350 kts 128°
2026-05-09 03:17 32.68397 97.45485 22706 ft 354 kts 128°
2026-05-09 03:17 32.66906 97.47822 23094 ft 356 kts 128°
2026-05-09 03:17 32.65396 97.50189 23463 ft 361 kts 128°
2026-05-09 03:17 32.63878 97.52574 23936 ft 365 kts 128°
2026-05-09 03:18 32.62334 97.54997 24352 ft 369 kts 128°
2026-05-09 03:18 32.60776 97.57442 24790 ft 371 kts 129°
2026-05-09 03:18 32.59247 97.59938 25234 ft 374 kts 126°
2026-05-09 03:18 32.57826 97.62492 25671 ft 377 kts 123°
2026-05-09 03:19 32.56488 97.65176 26095 ft 380 kts 121°
2026-05-09 03:19 32.55235 97.67945 26510 ft 383 kts 119°
2026-05-09 03:19 32.54047 97.70784 26950 ft 387 kts 117°
2026-05-09 03:19 32.52918 97.73693 27384 ft 390 kts 115°
2026-05-09 03:20 32.51862 97.76676 27809 ft 394 kts 113°
2026-05-09 03:20 32.50896 97.79722 28236 ft 397 kts 111°
2026-05-09 03:20 32.50024 97.82850 28660 ft 401 kts 109°
2026-05-09 03:20 32.49245 97.86034 29077 ft 405 kts 107°
2026-05-09 03:21 32.48553 97.89271 29474 ft 408 kts 105°
2026-05-09 03:21 32.47908 97.92582 29681 ft 417 kts 105°
2026-05-09 03:21 32.47246 97.95962 29810 ft 427 kts 105°
2026-05-09 03:21 32.46564 97.99422 29943 ft 436 kts 105°
2026-05-09 03:22 32.45867 98.02945 30081 ft 445 kts 105°
2026-05-09 03:22 32.45153 98.06548 30223 ft 454 kts 105°
2026-05-09 03:22 32.44456 98.10229 30358 ft 463 kts 102°
2026-05-09 03:22 32.44097 98.14055 30478 ft 472 kts 93°
2026-05-09 03:23 32.44183 98.17973 30593 ft 480 kts 85°
2026-05-09 03:23 32.44721 98.21901 30716 ft 486 kts 77°
2026-05-09 03:23 32.45519 98.25816 30832 ft 492 kts 77°
2026-05-09 03:23 32.46263 98.29497 30980 ft 496 kts 77°
2026-05-09 03:24 32.47058 98.33480 31233 ft 497 kts 77°
2026-05-09 03:24 32.47851 98.37477 31506 ft 498 kts 77°
2026-05-09 03:24 32.48642 98.41472 31776 ft 499 kts 77°
2026-05-09 03:24 32.49439 98.45485 32092 ft 499 kts 77°
2026-05-09 03:25 32.50232 98.49476 32407 ft 499 kts 77°
2026-05-09 03:25 32.51024 98.53471 32727 ft 499 kts 77°
2026-05-09 03:25 32.51821 98.57478 33062 ft 499 kts 77°
2026-05-09 03:25 32.52616 98.61481 33341 ft 500 kts 77°
2026-05-09 03:26 32.54223 98.69619 33412 ft 514 kts 77°
2026-05-09 03:26 32.55866 98.77954 33408 ft 519 kts 77°
2026-05-09 03:27 32.57472 98.86175 33412 ft 514 kts 77°
2026-05-09 03:27 32.58559 98.94523 33418 ft 512 kts 91°
2026-05-09 03:28 32.57428 99.02793 33413 ft 508 kts 111°
2026-05-09 03:28 32.54159 99.10109 33414 ft 502 kts 128°
2026-05-09 03:29 32.50124 99.16864 33406 ft 502 kts 128°
2026-05-09 03:29 32.46089 99.23618 33399 ft 502 kts 128°
2026-05-09 03:30 32.42052 99.30372 33392 ft 502 kts 128°
2026-05-09 03:30 32.38017 99.37114 33390 ft 502 kts 128°
2026-05-09 03:31 32.33978 99.43851 33385 ft 502 kts 128°
2026-05-09 03:31 32.29931 99.50590 33382 ft 502 kts 128°
2026-05-09 03:32 32.25871 99.57321 33371 ft 502 kts 128°
2026-05-09 03:32 32.21837 99.63995 33364 ft 502 kts 129°
2026-05-09 03:33 32.17778 99.70718 33364 ft 502 kts 129°
2026-05-09 03:33 32.13716 99.77436 33369 ft 502 kts 129°
2026-05-09 03:34 32.09653 99.84139 33361 ft 502 kts 129°
2026-05-09 03:34 32.05570 99.90825 33356 ft 502 kts 130°
2026-05-09 03:35 32.03244 99.93857 33358 ft 497 kts 141°
2026-05-09 03:35 32.00527 99.96338 33356 ft 491 kts 152°
2026-05-09 03:35 31.94338 99.99401 33342 ft 478 kts 172°
2026-05-09 03:36 31.87794 100.00006 33375 ft 470 kts 185°
2026-05-09 03:36 31.81283 99.99990 33376 ft 471 kts 185°
2026-05-09 03:37 31.74718 99.99990 33379 ft 471 kts 185°
2026-05-09 03:37 31.68166 99.99997 33377 ft 471 kts 185°
2026-05-09 03:38 31.61601 99.99992 33373 ft 472 kts 186°
2026-05-09 03:38 31.55030 99.99997 33368 ft 472 kts 186°
2026-05-09 03:39 31.48458 100.00009 33365 ft 472 kts 186°
2026-05-09 03:39 31.41894 100.00012 33364 ft 472 kts 186°
2026-05-09 03:40 31.35324 100.00003 33357 ft 471 kts 187°
2026-05-09 03:40 31.28776 99.99993 33361 ft 470 kts 187°
2026-05-09 03:41 31.22224 99.99997 33359 ft 470 kts 187°
2026-05-09 03:41 31.15678 100.00007 33359 ft 470 kts 187°
2026-05-09 03:42 31.09154 100.00009 33331 ft 469 kts 187°
2026-05-09 03:42 31.02618 100.00000 33339 ft 468 kts 187°
2026-05-09 03:43 30.96144 100.00001 33330 ft 468 kts 187°
2026-05-09 03:43 30.89638 100.00000 33308 ft 467 kts 187°
2026-05-09 03:44 30.83128 99.99998 33312 ft 467 kts 187°
2026-05-09 03:44 30.76623 99.99993 33297 ft 467 kts 187°
2026-05-09 03:45 30.70114 99.99989 33293 ft 467 kts 187°
2026-05-09 03:45 30.63616 99.99990 33288 ft 468 kts 187°
2026-05-09 03:46 30.57107 99.99998 33238 ft 468 kts 187°
2026-05-09 03:46 30.50597 100.00004 33250 ft 467 kts 187°
2026-05-09 03:47 30.44092 100.00009 33245 ft 468 kts 187°
2026-05-09 03:47 30.37579 100.00841 33242 ft 492 kts 165°
2026-05-09 03:48 30.34601 100.02916 33226 ft 512 kts 145°
2026-05-09 03:48 30.32222 100.06052 33228 ft 525 kts 130°
2026-05-09 03:48 30.28346 100.13259 33198 ft 535 kts 119°
2026-05-09 03:49 30.27078 100.17343 33232 ft 544 kts 108°
2026-05-09 03:49 30.26440 100.21673 33237 ft 549 kts 97°
2026-05-09 03:49 30.25758 100.30481 33223 ft 550 kts 97°
2026-05-09 03:50 30.25101 100.39303 33220 ft 551 kts 97°
2026-05-09 03:50 30.24431 100.48140 33215 ft 552 kts 97°
2026-05-09 03:51 30.23745 100.56978 33218 ft 552 kts 97°
2026-05-09 03:51 30.23050 100.65832 33204 ft 552 kts 97°
2026-05-09 03:52 30.22353 100.74676 33219 ft 553 kts 97°
2026-05-09 03:52 30.21650 100.83515 33215 ft 553 kts 97°
2026-05-09 03:53 30.20936 100.92374 33213 ft 553 kts 97°
2026-05-09 03:53 30.20212 101.01216 33201 ft 551 kts 97°
2026-05-09 03:54 30.19487 101.10061 33226 ft 553 kts 97°
2026-05-09 03:54 30.18758 101.18907 33227 ft 553 kts 97°
2026-05-09 03:55 30.18022 101.27694 33228 ft 552 kts 97°
2026-05-09 03:55 30.17274 101.36550 33240 ft 552 kts 97°
2026-05-09 03:56 30.16533 101.45397 33246 ft 553 kts 97°
2026-05-09 03:56 30.15781 101.54253 33285 ft 554 kts 97°
2026-05-09 03:57 30.15023 101.63118 33333 ft 554 kts 97°
2026-05-09 03:57 30.14926 101.71973 33331 ft 556 kts 82°
2026-05-09 03:58 30.16915 101.80564 33367 ft 553 kts 65°
2026-05-09 03:58 30.19945 101.88705 33373 ft 553 kts 64°
2026-05-09 03:59 30.22951 101.96898 33395 ft 554 kts 65°
2026-05-09 03:59 30.25945 102.05114 33384 ft 554 kts 64°
2026-05-09 04:00 30.28950 102.13336 33391 ft 555 kts 64°
2026-05-09 04:00 30.31462 102.20183 33402 ft 556 kts 65°
2026-05-09 04:01 30.34477 102.28424 33399 ft 556 kts 64°
2026-05-09 04:01 30.37472 102.36658 33381 ft 555 kts 65°
2026-05-09 04:02 30.40463 102.44903 33406 ft 555 kts 64°
2026-05-09 04:02 30.43450 102.53159 33378 ft 555 kts 64°
2026-05-09 04:03 30.46436 102.61419 33373 ft 555 kts 64°
2026-05-09 04:03 30.49412 102.69673 33350 ft 555 kts 64°
2026-05-09 04:04 30.52358 102.77892 33321 ft 555 kts 64°
2026-05-09 04:04 30.55316 102.86150 33337 ft 555 kts 64°
2026-05-09 04:05 30.58284 102.94426 33326 ft 555 kts 65°
2026-05-09 04:05 30.61243 103.02718 33325 ft 556 kts 65°
2026-05-09 04:06 30.64137 103.11042 33323 ft 555 kts 65°
2026-05-09 04:06 30.65562 103.15220 33031 ft 556 kts 66°
2026-05-09 04:06 30.66882 103.19430 32405 ft 555 kts 72°
2026-05-09 04:07 30.67716 103.23803 31734 ft 552 kts 81°
2026-05-09 04:07 30.68029 103.28232 31036 ft 548 kts 90°
2026-05-09 04:07 30.67852 103.32615 30151 ft 538 kts 96°
2026-05-09 04:07 30.67479 103.36916 28678 ft 533 kts 97°
2026-05-09 04:08 30.67092 103.41168 27309 ft 527 kts 97°
2026-05-09 04:08 30.66696 103.45379 25820 ft 521 kts 97°
2026-05-09 04:08 30.66297 103.49550 24089 ft 519 kts 97°
2026-05-09 04:08 30.65902 103.53672 22783 ft 506 kts 96°
2026-05-09 04:09 30.65498 103.57669 21478 ft 492 kts 99°
2026-05-09 04:09 30.64608 103.61399 20233 ft 478 kts 112°
2026-05-09 04:09 30.63064 103.64766 19004 ft 466 kts 125°
2026-05-09 04:09 30.60994 103.67585 17706 ft 455 kts 137°
2026-05-09 04:10 30.58514 103.69780 16358 ft 446 kts 149°
2026-05-09 04:10 30.55739 103.71299 15130 ft 439 kts 160°
2026-05-09 04:10 30.52799 103.72228 14027 ft 436 kts 167°
2026-05-09 04:10 30.49795 103.72591 12894 ft 431 kts 175°
2026-05-09 04:11 30.46820 103.72800 11677 ft 423 kts 175°
2026-05-09 04:11 30.43909 103.73006 10465 ft 415 kts 175°
2026-05-09 04:11 30.41059 103.73207 9402 ft 404 kts 176°
2026-05-09 04:11 30.38365 103.73068 9071 ft 373 kts 192°
2026-05-09 04:12 30.36016 103.72156 8917 ft 343 kts 201°
2026-05-09 04:12 30.33872 103.71189 8777 ft 318 kts 201°
2026-05-09 04:12 30.31870 103.70279 8656 ft 299 kts 201°
2026-05-09 04:12 30.29997 103.69425 8528 ft 282 kts 202°
2026-05-09 04:13 30.28219 103.68607 8398 ft 267 kts 202°
2026-05-09 04:13 30.26558 103.67835 8272 ft 254 kts 202°
2026-05-09 04:13 30.24957 103.67088 8151 ft 242 kts 203°
2026-05-09 04:13 30.23440 103.66379 8011 ft 228 kts 202°
2026-05-09 04:14 30.21993 103.65704 7772 ft 221 kts 203°
2026-05-09 04:14 30.20578 103.65045 7477 ft 217 kts 203°
2026-05-09 04:14 30.19179 103.64468 7165 ft 212 kts 190°
2026-05-09 04:14 30.17763 103.64766 6844 ft 209 kts 147°
2026-05-09 04:15 30.16866 103.66053 6483 ft 209 kts 113°
2026-05-09 04:15 30.16320 103.67614 6212 ft 206 kts 112°
2026-05-09 04:15 30.15796 103.69107 6054 ft 195 kts 113°
2026-05-09 04:15 30.15297 103.70527 5917 ft 186 kts 113°
2026-05-09 04:16 30.14835 103.71841 5796 ft 178 kts 114°
2026-05-09 04:16 30.14380 103.73148 5662 ft 171 kts 112°
2026-05-09 04:16 30.14237 103.74469 5534 ft 164 kts 84°
2026-05-09 04:16 30.14587 103.75697 5331 ft 162 kts 58°
2026-05-09 04:17 30.15357 103.76627 5102 ft 161 kts 32°
2026-05-09 04:17 30.16370 103.77156 4865 ft 160 kts 20°
2026-05-09 04:17 30.17399 103.77627 4649 ft 156 kts 21°
2026-05-09 04:17 30.18441 103.78112 4137 ft 172 kts 21°
2026-05-09 04:18 30.19609 103.78656 3890 ft 189 kts 22°
2026-05-09 04:18 30.20861 103.79238 3890 ft 195 kts 22°
2026-05-09 04:18 30.22110 103.79818 3874 ft 197 kts 21°
2026-05-09 04:18 30.23406 103.80419 3876 ft 197 kts 22°
2026-05-09 04:19 30.24681 103.81010 3872 ft 198 kts 21°
2026-05-09 04:19 30.25958 103.81602 3881 ft 199 kts 21°
2026-05-09 04:19 30.27216 103.82185 3870 ft 196 kts 21°
2026-05-09 04:19 30.28493 103.82776 3883 ft 198 kts 21°
2026-05-09 04:20 30.29730 103.83349 3872 ft 181 kts 21°
2026-05-09 04:20 30.30843 103.83865 3853 ft 165 kts 20°
2026-05-09 04:20 30.31893 103.84354 3865 ft 159 kts 21°
2026-05-09 04:20 30.32922 103.84835 3892 ft 161 kts 21°
2026-05-09 04:21 30.33958 103.85318 3891 ft 159 kts 21°
2026-05-09 04:21 30.34983 103.85794 3883 ft 158 kts 21°
2026-05-09 04:21 30.36976 103.86716 3882 ft 148 kts 20°
2026-05-09 04:22 30.37918 103.87153 3876 ft 145 kts 20°
2026-05-09 04:22 30.38860 103.87590 3891 ft 147 kts 19°
2026-05-09 04:22 30.39793 103.88023 3881 ft 146 kts 22°
2026-05-09 04:22 30.40734 103.88459 3872 ft 147 kts 20°
2026-05-09 04:23 30.41694 103.88904 3785 ft 148 kts 21°
2026-05-09 04:23 30.42639 103.89341 3647 ft 147 kts 19°
2026-05-09 04:23 30.43582 103.89780 3451 ft 144 kts 21°
2026-05-09 04:23 30.44511 103.90211 3265 ft 143 kts 22°
2026-05-09 04:24 30.45426 103.90635 3084 ft 143 kts 22°
2026-05-09 04:24 30.46345 103.91062 2906 ft 142 kts 21°
2026-05-09 04:24 30.47261 103.91487 2706 ft 143 kts 20°
2026-05-09 04:24 30.48181 103.91915 2517 ft 141 kts 21°
2026-05-09 04:25 30.49071 103.92328 2338 ft 141 kts 21°
2026-05-09 04:25 30.49946 103.92735 2154 ft 138 kts 21°
2026-05-09 04:25 30.50831 103.93151 1977 ft 136 kts 21°
2026-05-09 04:25 30.51702 103.93561 1769 ft 134 kts 20°
2026-05-09 04:26 30.52550 103.93952 1674 ft 121 kts 21°
2026-05-09 04:26 30.53196 103.94247 1663 ft 75 kts 21°
2026-05-09 04:26 30.53529 103.94403 1662 ft 35 kts 22°
2026-05-09 04:26 30.53763 103.94478 1661 ft 30 kts 347°
2026-05-09 04:27 30.53949 103.94437 1649 ft 29 kts 350°
2026-05-09 04:27 30.54118 103.94447 1648 ft 23 kts 21°
2026-05-09 04:27 30.54218 103.94495 1647 ft 13 kts 22°
2026-05-09 04:27 30.54268 103.94518 1647 ft 6 kts 22°
2026-05-09 04:28 30.54311 103.94539 1647 ft 8 kts 22°
2026-05-09 04:28 30.54366 103.94565 1647 ft 10 kts 22°
2026-05-09 04:28 30.54434 103.94597 1647 ft 11 kts 22°
2026-05-09 04:28 30.54474 103.94615 1647 ft 5 kts 22°
2026-05-09 04:29 30.54510 103.94632 1647 ft 7 kts 22°
2026-05-09 04:29 30.54552 103.94652 1647 ft 0 kts 22°
2026-05-09 04:29 30.54559 103.94655 1647 ft 2 kts 22°
2026-05-09 04:29 30.54576 103.94663 1647 ft 4 kts 22°
2026-05-09 04:30 30.54605 103.94676 1647 ft 5 kts 22°
2026-05-09 04:30 30.54625 103.94686 1647 ft 0 kts 22°
2026-05-09 04:30 30.54629 103.94688 1647 ft 1 kts 22°
2026-05-09 04:31 30.54643 103.94694 1647 ft 3 kts 22°
2026-05-09 04:31 30.54666 103.94705 1647 ft 4 kts 22°
2026-05-09 04:31 30.54701 103.94721 1647 ft 6 kts 22°
2026-05-09 04:31 30.54714 103.94727 1647 ft 0 kts 22°
2026-05-09 04:32 30.54722 103.94731 1647 ft 6 kts 22°
2026-05-09 04:32 30.54775 103.94756 1647 ft 10 kts 22°
2026-05-09 04:32 30.54845 103.94788 1647 ft 12 kts 22°
2026-05-09 04:32 30.54929 103.94828 1646 ft 14 kts 22°
2026-05-09 04:33 30.55026 103.94873 1646 ft 16 kts 22°
2026-05-09 04:33 30.55134 103.94923 1646 ft 18 kts 22°
2026-05-09 04:33 30.55176 103.94942 1647 ft 0 kts 22°
2026-05-09 04:33 30.55148 103.94929 1646 ft 8 kts 22°
2026-05-09 04:34 30.55098 103.94906 1646 ft 8 kts 22°
2026-05-09 04:34 30.55048 103.94883 1646 ft 8 kts 22°
2026-05-09 04:34 30.54999 103.94859 1646 ft 8 kts 22°
2026-05-09 04:34 30.54992 103.94856 1646 ft 1 kts 18°
2026-05-09 04:35 30.55021 103.94836 1647 ft 9 kts 306°
2026-05-09 04:35 30.55053 103.94775 1647 ft 4 kts
2026-05-09 04:35 30.55091 103.94792 1647 ft 8 kts 22°
2026-05-09 04:35 30.55152 103.94822 1647 ft 11 kts 22°
2026-05-09 04:36 30.55231 103.94858 1647 ft 13 kts 21°
2026-05-09 04:36 30.55324 103.94901 1647 ft 13 kts 21°
2026-05-09 04:36 30.55416 103.94944 1647 ft 15 kts 21°
2026-05-09 04:36 30.55522 103.94993 1647 ft 17 kts 21°
2026-05-09 04:37 30.55640 103.95046 1647 ft 19 kts 21°
2026-05-09 04:37 30.55774 103.95107 1647 ft 20 kts 21°
2026-05-09 04:37 30.55907 103.95170 1647 ft 21 kts 23°
2026-05-09 04:37 30.56050 103.95240 1647 ft 23 kts 22°
2026-05-09 04:38 30.56194 103.95293 1647 ft 21 kts 18°
2026-05-09 04:38 30.56332 103.95356 1647 ft 21 kts 22°
2026-05-09 04:38 30.56458 103.95420 1647 ft 18 kts 22°
2026-05-09 04:38 30.56582 103.95473 1647 ft 20 kts 22°
2026-05-09 04:39 30.56678 103.95452 1647 ft 16 kts 281°
2026-05-09 04:39 30.56721 103.95343 1647 ft 25 kts 296°
2026-05-09 04:39 30.56784 103.95157 1647 ft 25 kts 291°
2026-05-09 04:39 30.56839 103.95043 1647 ft 4 kts 358°
2026-05-09 04:40 30.56873 103.95063 1647 ft 7 kts 27°
2026-05-09 04:40 30.56895 103.95077 1647 ft 0 kts 28°
2026-05-09 04:40 30.56896 103.95077 1647 ft 0 kts 30°
2026-05-09 04:40 30.56896 103.95078 1647 ft 0 kts 30°